TimeEST,TemperatureF,Dew PointF,Humidity,Sea Level PressureIn,VisibilityMPH,Wind Direction,Wind SpeedMPH,Gust SpeedMPH,PrecipitationIn,Events,Conditions,WindDirDegrees,DateUTC
12:53 AM,54.0,46.0,75,30.10,10.0,WNW,12.7,21.9,N/A,,Clear,290,2013-01-18 05:53:00
1:53 AM,52.0,44.1,74,30.13,10.0,NW,17.3,-,N/A,,Partly Cloudy,310,2013-01-18 06:53:00
2:26 AM,51.8,44.6,76,30.13,10.0,NW,12.7,-,N/A,,Mostly Cloudy,310,2013-01-18 07:26:00
2:53 AM,51.1,41.0,68,30.14,10.0,WNW,19.6,-,N/A,,Overcast,300,2013-01-18 07:53:00
3:28 AM,48.2,39.2,71,30.15,10.0,NW,12.7,-,N/A,,Scattered Clouds,310,2013-01-18 08:28:00
3:53 AM,46.9,39.0,74,30.16,10.0,NW,13.8,-,N/A,,Clear,320,2013-01-18 08:53:00
4:25 AM,46.4,37.4,71,30.16,10.0,NW,16.1,-,N/A,,Mostly Cloudy,320,2013-01-18 09:25:00
4:53 AM,46.0,37.0,71,30.18,10.0,NNW,17.3,24.2,N/A,,Overcast,330,2013-01-18 09:53:00
5:53 AM,44.1,36.0,73,30.19,10.0,NW,11.5,20.7,N/A,,Overcast,320,2013-01-18 10:53:00
6:53 AM,45.0,37.0,74,30.22,10.0,NW,9.2,-,N/A,,Overcast,310,2013-01-18 11:53:00
7:39 AM,44.6,37.4,76,30.23,10.0,WNW,10.4,-,N/A,,Overcast,300,2013-01-18 12:39:00
7:53 AM,45.0,37.0,74,30.23,10.0,NW,10.4,-,N/A,,Overcast,310,2013-01-18 12:53:00
8:53 AM,48.0,39.0,71,30.25,10.0,WNW,12.7,-,N/A,,Scattered Clouds,300,2013-01-18 13:53:00
9:53 AM,55.0,43.0,64,30.26,10.0,NW,11.5,-,N/A,,Partly Cloudy,320,2013-01-18 14:53:00
10:53 AM,61.0,46.9,60,30.25,10.0,NNW,11.5,-,N/A,,Partly Cloudy,330,2013-01-18 15:53:00
11:53 AM,64.9,48.9,56,30.23,10.0,NNW,10.4,-,N/A,,Clear,340,2013-01-18 16:53:00
12:53 PM,66.9,55.0,66,30.21,10.0,North,10.4,20.7,N/A,,Scattered Clouds,10,2013-01-18 17:53:00
1:53 PM,70.0,55.0,59,30.19,10.0,NE,21.9,26.5,N/A,,Mostly Cloudy,50,2013-01-18 18:53:00
2:53 PM,69.1,55.0,61,30.20,10.0,NE,20.7,26.5,N/A,,Mostly Cloudy,40,2013-01-18 19:53:00
3:53 PM,69.1,55.9,63,30.21,10.0,NE,21.9,25.3,N/A,,Overcast,40,2013-01-18 20:53:00
4:53 PM,64.9,59.0,81,30.22,10.0,NE,23.0,28.8,0.01,,Mostly Cloudy,40,2013-01-18 21:53:00
5:53 PM,63.0,60.1,90,30.24,3.0,NE,20.7,26.5,0.00,,Mostly Cloudy,40,2013-01-18 22:53:00
6:53 PM,64.9,59.0,81,30.25,3.0,NE,18.4,26.5,0.00,,Haze,50,2013-01-18 23:53:00
7:00 PM,64.4,59.0,83,30.25,8.0,East,17.3,33.4,0.00,Rain,Light Rain,90,2013-01-19 00:00:00
7:53 PM,66.9,57.9,73,30.25,10.0,ENE,19.6,27.6,0.02,,Overcast,60,2013-01-19 00:53:00
8:53 PM,66.0,57.9,75,30.25,10.0,ENE,18.4,31.1,N/A,,Mostly Cloudy,60,2013-01-19 01:53:00
9:53 PM,66.9,57.9,73,30.25,10.0,ENE,17.3,27.6,N/A,,Overcast,60,2013-01-19 02:53:00
10:53 PM,66.0,57.0,73,30.25,10.0,ENE,16.1,29.9,0.01,,Overcast,60,2013-01-19 03:53:00
11:53 PM,66.9,57.9,73,30.24,10.0,ENE,20.7,27.6,0.00,,Overcast,60,2013-01-19 04:53:00